• In Netherlands
  • List of Countries
  • For 7 days
  • Water Temperature
  • Satellite Maps
  • Weather Map
  • Weather Widgets
  • user-avatar
    Login

    Hourly Weather Pinsk

    Today, 22 February, Wednesday

    Time Temperature Precipitation Wind Pressure Humidity
    00:00 +1°C° 0.1 mm 4 mps 737 mmHg 92%
    01:00 +1°C° 0.1 mm 5 mps 737 mmHg 92%
    02:00 +1°C° 0 mm 4 mps 737 mmHg 91%
    03:00 +1°C° 0.2 mm 4 mps 737 mmHg 91%
    04:00 +1°C° 0.2 mm 5 mps 738 mmHg 90%
    05:00 0°C° 0.2 mm 5 mps 739 mmHg 89%
    06:00 0°C° 0 mm 4 mps 739 mmHg 90%
    07:00 -1°C° 0 mm 4 mps 740 mmHg 90%
    08:00 0°C° 0 mm 3 mps 740 mmHg 90%
    09:00 0°C° 0 mm 3 mps 740 mmHg 86%
    10:00 +1°C° 0 mm 3 mps 741 mmHg 82%
    11:00 +2°C° 0 mm 3 mps 741 mmHg 78%
    12:00 +2°C° 0 mm 3 mps 740 mmHg 79%
    13:00 +2°C° 0 mm 3 mps 740 mmHg 80%
    14:00 +2°C° 0 mm 3 mps 739 mmHg 81%
    15:00 +1°C° 0.5 mm 4 mps 738 mmHg 84%
    16:00 +1°C° 0.5 mm 4 mps 737 mmHg 87%
    17:00 +1°C° 0.5 mm 4 mps 736 mmHg 89%
    18:00 +1°C° 0.8 mm 4 mps 735 mmHg 91%
    19:00 +3°C° 0.8 mm 4 mps 734 mmHg 93%
    20:00 +2°C° 0.8 mm 5 mps 734 mmHg 95%
    21:00 +4°C° 0.3 mm 4 mps 733 mmHg 95%
    22:00 +4°C° 0.3 mm 4 mps 733 mmHg 96%
    23:00 +4°C° 0.3 mm 4 mps 733 mmHg 97%

    Tomorrow, 23 February, Thursday

    Time Temperature Precipitation Wind Pressure Humidity
    00:00 +4°C° 0.3 mm 4 mps 733 mmHg 97%
    01:00 +4°C° 0.3 mm 3 mps 733 mmHg 97%
    02:00 +4°C° 0.3 mm 3 mps 732 mmHg 97%
    03:00 +4°C° 0.5 mm 3 mps 732 mmHg 96%
    04:00 +3°C° 0.5 mm 4 mps 732 mmHg 95%
    05:00 +3°C° 0.5 mm 4 mps 732 mmHg 93%
    06:00 +3°C° 0 mm 4 mps 732 mmHg 92%
    07:00 +1°C° 0 mm 4 mps 732 mmHg 90%
    08:00 +1°C° 0 mm 4 mps 733 mmHg 89%
    09:00 +1°C° 0.1 mm 5 mps 733 mmHg 87%
    10:00 +1°C° 0.1 mm 5 mps 733 mmHg 85%
    11:00 +2°C° 0.1 mm 6 mps 734 mmHg 83%
    12:00 +2°C° 0.1 mm 6 mps 734 mmHg 82%
    13:00 +2°C° 0.1 mm 6 mps 734 mmHg 82%
    14:00 +2°C° 0.1 mm 6 mps 735 mmHg 81%
    15:00 +2°C° 0 mm 5 mps 735 mmHg 82%
    16:00 +2°C° 0 mm 5 mps 735 mmHg 84%
    17:00 +3°C° 0 mm 4 mps 736 mmHg 85%
    18:00 +2°C° 0 mm 3 mps 736 mmHg 88%
    19:00 +2°C° 0 mm 3 mps 736 mmHg 90%
    20:00 +2°C° 0 mm 3 mps 735 mmHg 93%
    21:00 +2°C° 0.2 mm 3 mps 735 mmHg 93%
    22:00 +2°C° 0.2 mm 3 mps 734 mmHg 94%
    23:00 +2°C° 0.2 mm 3 mps 733 mmHg 95%

    Day after tomorrow, 24 February, Friday

    Time Temperature Precipitation Wind Pressure Humidity
    00:00 +3°C° 0.5 mm 3 mps 733 mmHg 95%
    01:00 +4°C° 0.5 mm 4 mps 732 mmHg 95%
    02:00 +5°C° 0.5 mm 5 mps 732 mmHg 96%
    03:00 +5°C° 0.1 mm 5 mps 731 mmHg 93%
    04:00 +5°C° 0.1 mm 5 mps 731 mmHg 91%
    05:00 +5°C° 0.1 mm 5 mps 730 mmHg 89%
    06:00 +5°C° 0.1 mm 5 mps 730 mmHg 89%
    07:00 +4°C° 0.1 mm 6 mps 730 mmHg 88%
    08:00 +4°C° 0.1 mm 6 mps 730 mmHg 88%
    09:00 +4°C° 0.1 mm 7 mps 730 mmHg 84%
    10:00 +4°C° 0.1 mm 7 mps 730 mmHg 79%
    11:00 +4°C° 0.1 mm 8 mps 730 mmHg 74%
    12:00 +4°C° 0 mm 8 mps 731 mmHg 74%
    13:00 +4°C° 0 mm 8 mps 731 mmHg 74%
    14:00 +2°C° 0 mm 8 mps 732 mmHg 74%
    15:00 +3°C° 0 mm 7 mps 732 mmHg 76%
    16:00 +3°C° 0 mm 7 mps 733 mmHg 78%
    17:00 +2°C° 0 mm 6 mps 734 mmHg 80%
    18:00 +1°C° 0.2 mm 6 mps 735 mmHg 81%
    19:00 0°C° 0.2 mm 5 mps 736 mmHg 82%
    20:00 -1°C° 0.2 mm 5 mps 737 mmHg 83%
    21:00 -1°C° 0.1 mm 5 mps 739 mmHg 83%
    22:00 -2°C° 0.1 mm 4 mps 740 mmHg 83%
    23:00 -2°C° 0.1 mm 4 mps 741 mmHg 82%

    25 February, Saturday

    Time Temperature Precipitation Wind Pressure Humidity
    00:00 -3°C° 0 mm 4 mps 742 mmHg 82%
    01:00 -4°C° 0 mm 3 mps 743 mmHg 83%
    02:00 -4°C° 0 mm 3 mps 744 mmHg 83%
    03:00 -4°C° 0 mm 3 mps 744 mmHg 82%
    04:00 -4°C° 0 mm 4 mps 744 mmHg 81%
    05:00 -4°C° 0 mm 4 mps 745 mmHg 81%
    06:00 -4°C° 0 mm 4 mps 745 mmHg 79%
    07:00 -3°C° 0 mm 4 mps 745 mmHg 77%
    08:00 -4°C° 0 mm 5 mps 745 mmHg 75%
    09:00 -2°C° 0.1 mm 5 mps 746 mmHg 70%
    10:00 -2°C° 0.1 mm 5 mps 746 mmHg 66%
    11:00 -1°C° 0.1 mm 5 mps 747 mmHg 61%
    12:00 -1°C° 0.1 mm 5 mps 747 mmHg 59%
    13:00 -1°C° 0.1 mm 5 mps 747 mmHg 57%
    14:00 -1°C° 0.1 mm 6 mps 747 mmHg 56%
    15:00 -1°C° 0.1 mm 5 mps 748 mmHg 60%
    16:00 -1°C° 0.1 mm 4 mps 748 mmHg 64%
    17:00 -1°C° 0.1 mm 3 mps 748 mmHg 69%
    18:00 -2°C° 0 mm 3 mps 749 mmHg 70%
    19:00 -2°C° 0 mm 3 mps 750 mmHg 72%
    20:00 -4°C° 0 mm 3 mps 750 mmHg 74%
    21:00 -4°C° 0 mm 3 mps 751 mmHg 75%
    22:00 -4°C° 0 mm 3 mps 751 mmHg 77%
    23:00 -4°C° 0 mm 3 mps 752 mmHg 78%

    26 February, Sunday

    Time Temperature Precipitation Wind Pressure Humidity
    00:00 -4°C° 0 mm 3 mps 752 mmHg 79%
    01:00 -4°C° 0 mm 3 mps 752 mmHg 80%
    02:00 -4°C° 0 mm 3 mps 753 mmHg 81%
    03:00 -4°C° 0 mm 3 mps 753 mmHg 83%
    04:00 -4°C° 0 mm 3 mps 753 mmHg 84%
    05:00 -4°C° 0 mm 3 mps 753 mmHg 86%
    06:00 -4°C° 0 mm 3 mps 752 mmHg 84%
    07:00 -2°C° 0 mm 3 mps 752 mmHg 82%
    08:00 -3°C° 0 mm 4 mps 752 mmHg 80%
    09:00 -2°C° 0.1 mm 4 mps 752 mmHg 77%
    10:00 -1°C° 0.1 mm 4 mps 752 mmHg 74%
    11:00 -1°C° 0.1 mm 5 mps 752 mmHg 71%
    12:00 0°C° 0.1 mm 5 mps 751 mmHg 68%
    13:00 +1°C° 0.1 mm 5 mps 751 mmHg 66%
    14:00 +1°C° 0.1 mm 5 mps 750 mmHg 64%
    15:00 +1°C° 0 mm 5 mps 750 mmHg 67%
    16:00 0°C° 0 mm 4 mps 750 mmHg 71%
    17:00 0°C° 0 mm 4 mps 749 mmHg 74%
    18:00 0°C° 0.1 mm 4 mps 749 mmHg 75%
    19:00 -1°C° 0.1 mm 4 mps 749 mmHg 76%
    20:00 -1°C° 0.1 mm 4 mps 749 mmHg 77%
    21:00 -1°C° 0.1 mm 4 mps 749 mmHg 80%
    22:00 -1°C° 0.1 mm 4 mps 749 mmHg 82%
    23:00 -1°C° 0.1 mm 4 mps 749 mmHg 84%

    27 February, Monday

    Time Temperature Precipitation Wind Pressure Humidity
    00:00 -1°C° 0.1 mm 4 mps 748 mmHg 85%
    01:00 -1°C° 0.1 mm 4 mps 748 mmHg 85%
    02:00 0°C° 0.1 mm 3 mps 748 mmHg 86%
    03:00 -1°C° 0 mm 3 mps 748 mmHg 86%
    04:00 -1°C° 0 mm 3 mps 748 mmHg 86%
    05:00 -1°C° 0 mm 3 mps 748 mmHg 86%
    06:00 -1°C° 0 mm 3 mps 748 mmHg 87%
    07:00 -1°C° 0 mm 3 mps 748 mmHg 88%
    08:00 -1°C° 0 mm 3 mps 748 mmHg 89%
    09:00 0°C° 0 mm 3 mps 749 mmHg 88%
    10:00 +1°C° 0 mm 3 mps 749 mmHg 86%
    11:00 +2°C° 0 mm 3 mps 749 mmHg 85%
    12:00 +2°C° 0 mm 3 mps 749 mmHg 86%
    13:00 +3°C° 0 mm 2 mps 749 mmHg 87%
    14:00 +4°C° 0 mm 2 mps 749 mmHg 88%
    15:00 +3°C° 0 mm 2 mps 750 mmHg 91%
    16:00 +3°C° 0 mm 2 mps 750 mmHg 94%
    17:00 +3°C° 0 mm 1 mps 750 mmHg 97%
    18:00 +3°C° 0 mm 1 mps 750 mmHg 98%
    19:00 +3°C° 0 mm 1 mps 751 mmHg 98%
    20:00 +3°C° 0 mm 1 mps 751 mmHg 98%
    21:00 +3°C° 0 mm 1 mps 751 mmHg 98%
    22:00 +3°C° 0 mm 1 mps 751 mmHg 98%
    23:00 +3°C° 0 mm 1 mps 751 mmHg 98%
    Show more